Time,TemperatureF,DewpointF,PressureIn,WindDirection,WindDirectionDegrees,WindSpeedMPH,WindSpeedGustMPH,Humidity,HourlyPrecipIn,Conditions,Clouds,dailyrainin,SoftwareType,DateUTC
2013-07-18 00:00:00,62.7,62.4,30.17,SSW,192,0.0,0.0,99,0.00,,,0.00,VWS V12.07,2013-07-18 04:00:00,
2013-07-18 00:10:00,62.7,62.4,30.17,SSW,192,0.0,0.0,99,0.00,,,0.00,VWS V12.07,2013-07-18 04:10:00,
2013-07-18 00:20:00,62.6,62.3,30.16,SSW,192,0.0,0.0,99,0.00,,,0.00,VWS V12.07,2013-07-18 04:20:00,
2013-07-18 00:28:00,62.6,62.3,30.16,SSW,192,0.0,0.0,99,0.00,,,0.00,VWS V12.07,2013-07-18 04:28:00,
2013-07-18 00:30:00,62.4,62.1,30.15,SSW,192,0.0,0.0,99,0.00,,,0.00,VWS V12.07,2013-07-18 04:30:00,
2013-07-18 00:40:00,62.3,62.0,30.15,SSW,192,0.0,0.0,99,0.00,,,0.00,VWS V12.07,2013-07-18 04:40:00,
2013-07-18 00:50:00,62.3,62.0,30.14,SSW,192,0.0,2.0,99,0.00,,,0.00,VWS V12.07,2013-07-18 04:50:00,
2013-07-18 00:58:00,62.3,62.0,30.14,SSW,192,0.0,2.0,99,0.00,,,0.00,VWS V12.07,2013-07-18 04:58:00,
2013-07-18 01:00:00,62.3,62.0,30.14,SSW,192,0.0,1.0,99,0.00,,,0.00,VWS V12.07,2013-07-18 05:00:00,
2013-07-18 01:10:00,62.0,61.7,30.14,SSW,192,0.0,0.0,99,0.00,,,0.00,VWS V12.07,2013-07-18 05:10:00,
2013-07-18 01:20:00,61.8,61.5,30.15,SSW,192,0.0,0.0,99,0.00,,,0.00,VWS V12.07,2013-07-18 05:20:00,
2013-07-18 01:28:00,61.8,61.5,30.15,SSW,192,0.0,0.0,99,0.00,,,0.00,VWS V12.07,2013-07-18 05:28:00,
2013-07-18 01:30:00,61.6,61.3,30.14,SSW,192,0.0,0.0,99,0.00,,,0.00,VWS V12.07,2013-07-18 05:30:00,
2013-07-18 01:40:00,61.3,61.0,30.14,SSW,192,0.0,0.0,99,0.00,,,0.00,VWS V12.07,2013-07-18 05:40:00,
2013-07-18 01:50:00,61.3,61.0,30.15,SSW,192,0.0,0.0,99,0.00,,,0.00,VWS V12.07,2013-07-18 05:50:00,
2013-07-18 01:57:00,61.3,61.0,30.15,SSW,192,0.0,0.0,99,0.00,,,0.00,VWS V12.07,2013-07-18 05:57:00,
2013-07-18 02:00:00,61.2,60.9,30.15,SSW,192,0.0,0.0,99,0.00,,,0.00,VWS V12.07,2013-07-18 06:00:00,
2013-07-18 02:10:00,61.2,60.9,30.15,SSW,192,0.0,0.0,99,0.00,,,0.00,VWS V12.07,2013-07-18 06:10:00,
2013-07-18 02:20:00,61.2,60.9,30.15,SSW,192,0.0,0.0,99,0.00,,,0.00,VWS V12.07,2013-07-18 06:20:00,
2013-07-18 02:28:00,61.2,60.9,30.15,SSW,192,0.0,0.0,99,0.00,,,0.00,VWS V12.07,2013-07-18 06:28:00,
2013-07-18 02:30:00,61.0,60.7,30.15,SSW,192,0.0,0.0,99,0.00,,,0.00,VWS V12.07,2013-07-18 06:30:00,
2013-07-18 02:40:00,61.0,60.7,30.15,SSW,192,0.0,1.0,99,0.00,,,0.00,VWS V12.07,2013-07-18 06:40:00,
2013-07-18 02:50:00,60.9,60.6,30.15,SSW,192,0.0,0.0,99,0.00,,,0.00,VWS V12.07,2013-07-18 06:50:00,
2013-07-18 02:57:00,60.9,60.6,30.15,SSW,192,0.0,0.0,99,0.00,,,0.00,VWS V12.07,2013-07-18 06:57:00,
2013-07-18 03:00:00,60.7,60.4,30.15,SSW,192,0.0,0.0,99,0.00,,,0.00,VWS V12.07,2013-07-18 07:00:00,
2013-07-18 03:10:00,60.5,60.2,30.15,SSW,192,0.0,0.0,99,0.00,,,0.00,VWS V12.07,2013-07-18 07:10:00,
2013-07-18 03:20:00,60.5,60.5,30.15,SSW,192,0.0,0.0,100,0.00,,,0.00,VWS V12.07,2013-07-18 07:20:00,
2013-07-18 03:27:00,60.5,60.5,30.15,SSW,192,0.0,0.0,100,0.00,,,0.00,VWS V12.07,2013-07-18 07:27:00,
2013-07-18 03:30:00,60.4,60.1,30.15,SSW,192,0.0,0.0,99,0.01,,,0.01,VWS V12.07,2013-07-18 07:30:00,
2013-07-18 03:40:00,60.4,60.4,30.15,SSW,192,0.0,0.0,100,0.01,,,0.01,VWS V12.07,2013-07-18 07:40:00,
2013-07-18 03:50:00,60.2,60.2,30.16,SSW,192,0.0,0.0,100,0.01,,,0.01,VWS V12.07,2013-07-18 07:50:00,
2013-07-18 03:57:00,60.2,60.2,30.16,SSW,192,0.0,0.0,100,0.01,,,0.01,VWS V12.07,2013-07-18 07:57:00,
2013-07-18 04:00:00,59.9,59.9,30.15,SSW,192,0.0,0.0,100,0.01,,,0.01,VWS V12.07,2013-07-18 08:00:00,
2013-07-18 04:10:00,59.9,59.9,30.15,SSW,192,0.0,0.0,100,0.01,,,0.01,VWS V12.07,2013-07-18 08:10:00,
2013-07-18 04:20:00,59.8,59.8,30.16,SSW,192,0.0,0.0,100,0.01,,,0.01,VWS V12.07,2013-07-18 08:20:00,
2013-07-18 04:27:00,59.8,59.8,30.16,SSW,192,0.0,0.0,100,0.01,,,0.01,VWS V12.07,2013-07-18 08:27:00,
2013-07-18 04:30:00,59.8,59.8,30.16,SSW,192,0.0,0.0,100,0.01,,,0.01,VWS V12.07,2013-07-18 08:30:00,
2013-07-18 04:40:00,59.6,59.6,30.16,SSW,192,0.0,0.0,100,0.00,,,0.01,VWS V12.07,2013-07-18 08:40:00,
2013-07-18 04:50:00,59.6,59.6,30.16,SSW,192,0.0,0.0,100,0.00,,,0.01,VWS V12.07,2013-07-18 08:50:00,
2013-07-18 04:58:00,59.6,59.6,30.16,SSW,192,0.0,0.0,100,0.00,,,0.01,VWS V12.07,2013-07-18 08:58:00,
2013-07-18 05:00:00,59.5,59.5,30.16,SSW,192,0.0,0.0,100,0.00,,,0.01,VWS V12.07,2013-07-18 09:00:00,
2013-07-18 05:10:00,59.3,59.3,30.16,SSW,192,0.0,0.0,100,0.00,,,0.01,VWS V12.07,2013-07-18 09:10:00,
2013-07-18 05:20:00,59.2,59.2,30.17,SSW,192,0.0,0.0,100,0.00,,,0.01,VWS V12.07,2013-07-18 09:20:00,
2013-07-18 05:28:00,59.2,59.2,30.17,SSW,192,0.0,0.0,100,0.00,,,0.01,VWS V12.07,2013-07-18 09:28:00,
2013-07-18 05:30:00,59.2,59.2,30.17,SSW,192,0.0,0.0,100,0.00,,,0.01,VWS V12.07,2013-07-18 09:30:00,
2013-07-18 05:40:00,59.2,59.2,30.17,SSW,192,0.0,0.0,100,0.00,,,0.01,VWS V12.07,2013-07-18 09:40:00,
2013-07-18 05:50:00,58.9,58.9,30.17,SSW,192,0.0,0.0,100,0.00,,,0.01,VWS V12.07,2013-07-18 09:50:00,
2013-07-18 05:58:00,58.9,58.9,30.17,SSW,192,0.0,0.0,100,0.00,,,0.01,VWS V12.07,2013-07-18 09:58:00,
2013-07-18 06:00:00,58.9,58.9,30.17,SSW,192,0.0,0.0,100,0.00,,,0.01,VWS V12.07,2013-07-18 10:00:00,
2013-07-18 06:10:00,58.7,58.7,30.17,SSW,192,0.0,0.0,100,0.00,,,0.01,VWS V12.07,2013-07-18 10:10:00,
2013-07-18 06:20:00,58.6,58.6,30.17,SSW,192,0.0,0.0,100,0.00,,,0.01,VWS V12.07,2013-07-18 10:20:00,
2013-07-18 06:28:00,58.6,58.6,30.17,SSW,192,0.0,0.0,100,0.00,,,0.01,VWS V12.07,2013-07-18 10:28:00,
2013-07-18 06:30:00,58.7,58.7,30.18,SSW,192,0.0,0.0,100,0.00,,,0.01,VWS V12.07,2013-07-18 10:30:00,
2013-07-18 06:40:00,58.6,58.6,30.18,SSW,192,0.0,0.0,100,0.00,,,0.01,VWS V12.07,2013-07-18 10:40:00,
2013-07-18 06:50:00,58.4,58.4,30.18,SSW,192,0.0,0.0,100,0.00,,,0.01,VWS V12.07,2013-07-18 10:50:00,
2013-07-18 06:57:00,58.4,58.4,30.18,SSW,192,0.0,0.0,100,0.00,,,0.01,VWS V12.07,2013-07-18 10:57:00,
2013-07-18 07:00:00,58.4,58.4,30.19,SSW,192,0.0,0.0,100,0.00,,,0.01,VWS V12.07,2013-07-18 11:00:00,
2013-07-18 07:10:00,58.4,58.4,30.19,SSW,192,0.0,0.0,100,0.00,,,0.01,VWS V12.07,2013-07-18 11:10:00,
2013-07-18 07:20:00,58.6,58.6,30.19,SSW,192,0.0,0.0,100,0.00,,,0.01,VWS V12.07,2013-07-18 11:20:00,
2013-07-18 07:27:00,58.6,58.6,30.19,SSW,192,0.0,0.0,100,0.00,,,0.01,VWS V12.07,2013-07-18 11:27:00,
2013-07-18 07:30:00,59.0,59.0,30.19,SSW,192,0.0,0.0,100,0.00,,,0.01,VWS V12.07,2013-07-18 11:30:00,
2013-07-18 07:40:00,60.2,60.2,30.19,SSW,192,0.0,0.0,100,0.00,,,0.01,VWS V12.07,2013-07-18 11:40:00,
2013-07-18 07:50:00,60.7,60.7,30.18,SSW,192,0.0,0.0,100,0.00,,,0.01,VWS V12.07,2013-07-18 11:50:00,
2013-07-18 07:57:00,60.7,60.7,30.18,SSW,192,0.0,0.0,100,0.00,,,0.01,VWS V12.07,2013-07-18 11:57:00,
2013-07-18 08:00:00,61.5,61.5,30.17,SSW,192,0.0,0.0,100,0.00,,,0.01,VWS V12.07,2013-07-18 12:00:00,
2013-07-18 08:10:00,62.7,62.7,30.17,SSW,192,0.0,0.0,100,0.00,,,0.01,VWS V12.07,2013-07-18 12:10:00,
2013-07-18 08:20:00,63.5,63.5,30.16,SSW,192,0.0,0.0,100,0.00,,,0.01,VWS V12.07,2013-07-18 12:20:00,
2013-07-18 08:27:00,63.5,63.5,30.16,SSW,192,0.0,0.0,100,0.00,,,0.01,VWS V12.07,2013-07-18 12:27:00,
2013-07-18 08:30:00,65.2,65.2,30.15,SSW,192,0.0,0.0,100,0.00,,,0.01,VWS V12.07,2013-07-18 12:30:00,
2013-07-18 08:40:00,66.1,66.1,30.15,SSW,192,0.0,0.0,100,0.00,,,0.01,VWS V12.07,2013-07-18 12:40:00,
2013-07-18 08:50:00,67.3,67.0,30.16,SSW,192,0.0,1.0,99,0.00,,,0.01,VWS V12.07,2013-07-18 12:50:00,
2013-07-18 08:57:00,67.3,67.0,30.16,SSW,192,0.0,1.0,99,0.00,,,0.01,VWS V12.07,2013-07-18 12:57:00,
2013-07-18 09:00:00,69.1,68.5,30.14,SSW,192,0.0,0.0,98,0.00,,,0.01,VWS V12.07,2013-07-18 13:00:00,
2013-07-18 09:10:00,70.6,69.4,30.14,SSW,192,0.0,0.0,96,0.00,,,0.01,VWS V12.07,2013-07-18 13:10:00,
2013-07-18 09:20:00,70.9,68.5,30.14,SSW,192,0.0,0.0,92,0.00,,,0.01,VWS V12.07,2013-07-18 13:20:00,
2013-07-18 09:27:00,70.9,68.5,30.14,SSW,192,0.0,0.0,92,0.00,,,0.01,VWS V12.07,2013-07-18 13:27:00,
2013-07-18 09:30:00,71.5,67.1,30.14,SSW,192,0.0,0.0,86,0.00,,,0.01,VWS V12.07,2013-07-18 13:30:00,
2013-07-18 09:40:00,72.8,67.7,30.14,SSW,192,0.0,0.0,84,0.00,,,0.01,VWS V12.07,2013-07-18 13:40:00,
2013-07-18 09:50:00,72.8,67.7,30.13,SSW,192,0.0,0.0,84,0.00,,,0.01,VWS V12.07,2013-07-18 13:50:00,
2013-07-18 09:58:00,72.8,67.7,30.13,SSW,192,0.0,0.0,84,0.00,,,0.01,VWS V12.07,2013-07-18 13:58:00,
2013-07-18 10:00:00,73.5,68.0,30.13,SSW,192,0.0,0.0,83,0.00,,,0.01,VWS V12.07,2013-07-18 14:00:00,
2013-07-18 10:10:00,74.4,67.5,30.13,SSW,192,0.0,0.0,79,0.00,,,0.01,VWS V12.07,2013-07-18 14:10:00,
2013-07-18 10:20:00,75.8,68.8,30.12,SSW,192,0.0,0.0,79,0.00,,,0.01,VWS V12.07,2013-07-18 14:20:00,
2013-07-18 10:27:00,75.8,68.8,30.12,SSW,192,0.0,0.0,79,0.00,,,0.01,VWS V12.07,2013-07-18 14:27:00,
2013-07-18 10:30:00,75.4,67.3,30.12,SSW,192,0.0,0.0,76,0.00,,,0.01,VWS V12.07,2013-07-18 14:30:00,
2013-07-18 10:40:00,75.8,68.5,30.12,SSW,192,0.0,0.0,78,0.00,,,0.01,VWS V12.07,2013-07-18 14:40:00,
2013-07-18 10:50:00,77.9,69.7,30.11,SSW,192,0.0,0.0,76,0.00,,,0.01,VWS V12.07,2013-07-18 14:50:00,